Location: Harmony
(28.2000°N, 81.1500°W)
Time: 17:47:04
(UTC-05:00)

Daily predictions for brighter satellites

Satellite Brightness Start Highest point End
(mag) Time Altitude Azimuth Time Altitude Azimuth Time Altitude Azimuth
Cosmos 1484 Rocket 3.6 18:41:13 10° S 18:45:08 59° W 18:48:59 10° NNW
OTV 4 1.0 18:44:55 10° WSW 18:47:50 54° NNW 18:50:45 10° NE
Cosmos 1025 Rocket 4.4 18:48:33 10° NE 18:51:34 18° ENE 18:54:34 10° ESE
DELTA 2 R/B (1) 3.8 18:54:19 10° NW 18:59:52 60° NNE 19:05:15 11° ESE
Hubble Space Telescope 0.8 18:55:47 10° WSW 18:59:54 73° SSE 19:03:33 13° E
Cosmos 2322 3.8 18:55:03 10° N 19:00:41 58° ENE 19:06:15 10° SSE
BREEZE-M DEB (TANK) 4.5 18:55:23 10° WSW 19:01:36 38° NW 19:04:20 10° NNE
Cosmos 1850 Rocket 4.4 18:57:08 10° SSW 19:02:23 72° WNW 19:07:43 10° N
SJ-6B 3.1 19:02:05 10° SSE 19:05:56 46° ENE 19:09:42 10° N
CZ-3C R/B 2.7 18:57:38 10° WSW 19:09:28 39° SSW 19:12:32 12° ESE
ALOS 2.8 19:05:17 10° SE 19:09:32 36° ENE 19:13:47 10° N
Cosmos 2208 Rocket 4.5 19:05:18 10° N 19:10:22 39° ENE 19:15:21 10° SE
Cosmos 2297 Rocket 3.3 19:06:16 10° SSE 19:10:23 21° E 19:14:23 10° NE
HJ-1C 4.3 19:07:56 10° SE 19:10:52 28° ENE 19:13:47 10° NNE
Meteor 1-19 Rocket 4.2 19:05:32 10° N 19:11:16 76° E 19:17:05 10° SSE
H-2A R/B 4.0 19:10:56 14° ESE 19:12:46 20° ENE 19:15:32 10° NNE
Cosmos 2237 Rocket 4.1 19:13:45 10° NE 19:14:36 10° NE 19:14:36 10° NE
OAO 3 Copernicus 4.3 19:12:33 10° WNW 19:17:39 89° SSW 19:21:38 17° ESE
Cosmos 2237 4.3 19:13:44 10° N 19:19:20 55° ENE 19:24:53 10° SE
COSMOS 2428 3.1 19:14:06 10° N 19:19:28 41° ENE 19:24:47 10° SE
Okean 1-7 Rocket 3.6 19:18:00 10° N 19:22:26 61° E 19:26:49 10° SSE
Meteor 2-4 Rocket 3.5 19:19:49 10° N 19:25:15 70° E 19:30:34 10° SSE
FUSE 4.2 19:20:33 10° W 19:25:51 63° S 19:29:14 22° ESE
Cosmos 2285 Rocket 4.5 19:20:37 10° N 19:26:31 37° ENE 19:32:20 10° SE
Cosmos 2219 Rocket 3.2 19:22:58 10° N 19:27:32 25° ENE 19:28:57 23° E
Cosmos 2360 Rocket 2.6 19:22:11 10° NNW 19:27:47 66° WSW 19:33:22 10° S
Tiangong 2 3.3 19:26:02 10° W 19:28:30 22° SW 19:30:57 10° SSE
Cosmos 2219 4.3 19:23:14 10° SW 19:28:43 46° WNW 19:34:14 10° N
FREGAT/IRIS 3.1 19:26:43 10° S 19:29:45 62° W 19:32:48 10° NNW
OAO 3 Rocket 3.2 19:25:33 10° WSW 19:30:30 85° SSE 19:33:19 26° ENE
Cosmos 2227 Rocket 2.4 19:25:17 10° S 19:30:38 46° ESE 19:36:02 10° NNE
Meteor 1-23 Rocket 4.2 19:25:21 10° N 19:31:04 63° E 19:36:41 10° SSE
Okean 2 4.0 19:28:11 10° NNE 19:32:01 35° E 19:34:10 21° SE
Atlas Centaur 2 3.1 19:24:40 10° SW 19:32:08 48° SSE 19:35:46 25° E
Cosmos 1536 4.5 19:32:32 10° SSW 19:36:13 36° W 19:39:55 10° NNW
Helios 1B rocket 2.7 19:34:55 10° NNE 19:38:53 43° E 19:42:49 10° S
Cosmos 1455 Rocket 3.3 19:38:50 10° SSE 19:43:00 44° E 19:47:08 10° NNE
H-2A ROCKET BODY 4.4 19:31:48 10° WNW 19:45:52 26° SW 19:50:31 10° S
Resurs 01 Rocket 1.5 19:51:48 10° SSE 19:56:12 86° W 20:00:37 10° NNW
SEDSat Delta rocket 4.0 19:56:10 10° WSW 20:02:47 62° SSE 20:04:21 47° ESE
Fermi 4.4 20:01:43 10° WSW 20:05:08 42° S 20:05:08 42° S
Resurs 1-3 3.6 20:02:57 15° S 20:06:36 78° WSW 20:11:00 10° NNW
FENGYUN 3A 4.3 20:02:18 10° S 20:07:34 55° W 20:12:53 10° NNW
ATLAS 2A CENTAUR R/B 2.8 20:04:24 10° W 20:07:36 46° S 20:10:06 33° SE
Cosmos 2333 Rocket 2.4 20:08:01 10° N 20:12:59 50° NE 20:12:59 50° NE
GPS 2-04 Rocket1 4.3 20:10:50 10° WNW 20:14:12 29° N 20:14:12 29° N
OTV 4 3.8 20:22:22 10° NW 20:22:38 11° NW 20:22:38 11° NW
Cosmos 1892 Rocket 4.3 20:22:36 10° NNW 20:26:08 50° NW 20:26:08 50° NW
Cosmos 468 Rocket 4.2 20:24:27 10° NNW 20:28:51 63° NNW 20:28:51 63° NNW
Skynet4D Del rocket 3.6 20:25:00 10° W 20:29:46 68° SW 20:29:46 68° SW
Cosmos 2082 4.5 20:27:22 10° SW 20:32:54 51° WNW 20:37:58 12° N
USA 229 DEB 3.8 20:26:06 10° NNW 20:33:18 81° WSW 20:35:24 50° SSE
USA 229 3.8 20:26:12 10° NNW 20:33:24 81° WSW 20:35:26 52° SSE
Hubble Space Telescope 2.8 20:37:00 10° W 20:38:56 26° W 20:38:56 26° W
Cosmos 2297 Rocket 3.5 20:48:53 10° SW 20:54:05 37° WNW 20:56:25 26° NNW
Cosmos 2237 Rocket 3.7 20:53:47 10° NNW 20:56:29 29° NNW 20:56:29 29° NNW
NOSS 3-1 (C) 4.4 20:56:14 10° NNW 21:02:16 55° N 21:02:16 55° N
H-2A R/B 3.4 21:02:15 10° WSW 21:42:30 13° E 21:51:42 10° E
H-2A R/B 3.4 21:02:15 10° WSW 21:42:31 13° E 21:51:42 10° E
H-2A R/B 3.4 21:02:14 10° WSW 21:42:31 13° E 21:51:42 10° E
Cosmos 2219 Rocket 3.8 21:06:30 10° NW 21:10:47 31° W 21:10:47 31° W
Atlas Centaur 2 3.8 21:14:29 10° WSW 21:18:27 34° W 21:18:27 34° W
